Theta_e
316 315 314 312 311 312 313 311 312 313 312 313 315 315 315 317 318 321 323 324 324 323 326 328 329 329 329 331 333 331 336 336 335 336 335 325 325 324 323 324 329 330 331 333 334
317 316 315 313 312 311 313 313 312 310 306 307 309 310 314 316 320 321 323 323 322 320 326 328 325 326 328 328 333 334 336 335 332 333 334 327 327 327 326 325 325 327 332 333 334
313 317 315 314 312 312 310 313 313 312 308 304 305 306 312 317 318 314 318 321 321 320 325 327 329 327 328 326 330 330 334 331 332 333 332 331 329 328 330 330 327 327 331 332 333
311 313 316 315 313 312 310 311 314 314 310 305 303 305 314 320 309 319 318 322 322 321 323 325 328 330 329 326 325 328 326 326 328 329 329 329 329 329 330 330 328 328 327 331 331
311 312 314 317 315 312 311 308 313 314 312 308 305 309 315 317 315 319 319 321 319 321 324 324 326 327 329 325 324 325 327 326 323 326 329 328 329 329 328 327 326 326 326 326 328
309 311 312 315 316 314 311 310 309 313 313 310 307 312 317 315 315 318 321 323 322 322 323 324 324 324 325 325 325 326 327 326 321 324 326 327 326 326 326 324 324 325 324 325 324
309 311 311 312 316 315 313 311 308 311 313 310 308 313 315 314 317 318 321 323 322 321 322 323 324 325 324 325 324 326 329 327 325 325 325 325 326 326 323 322 322 323 323 324 324
310 308 310 311 313 316 314 311 310 309 313 311 310 313 313 312 314 318 320 321 322 321 321 322 324 327 328 325 328 327 327 328 321 321 325 325 324 320 320 320 321 321 322 322 323
310 309 309 310 312 313 315 313 311 309 312 311 313 313 312 310 313 317 319 319 320 322 321 322 325 326 326 330 329 329 328 327 325 321 323 328 329 324 321 321 321 321 322 321 321
308 309 308 307 308 311 314 314 311 310 312 312 312 313 312 313 313 316 318 319 320 321 323 323 325 326 326 329 328 326 327 324 324 323 324 325 326 325 323 322 322 322 322 322 322
308 307 310 308 307 310 312 313 310 310 311 310 311 312 313 312 311 314 318 320 320 321 322 323 326 326 325 324 324 323 323 323 322 321 324 324 323 322 320 320 321 320 321 322 322
307 308 308 309 306 308 312 311 307 308 311 311 309 311 313 312 313 313 316 318 318 320 321 323 325 321 322 323 324 325 324 323 321 321 322 320 320 319 319 319 319 320 320 320 320
307 307 308 308 306 309 312 312 307 308 310 309 310 310 312 314 314 314 316 318 318 318 320 321 319 320 320 322 324 324 324 324 322 319 320 319 320 318 318 318 318 319 319 319 320
306 307 307 307 307 310 311 311 308 306 310 310 309 309 312 314 315 312 313 316 318 318 318 320 318 319 319 320 320 323 318 319 321 322 321 318 320 318 317 316 316 316 315 316 317
306 306 307 307 306 308 310 308 307 305 312 309 309 308 311 314 313 314 312 315 316 317 319 320 319 321 321 320 319 320 319 320 321 320 319 319 321 317 316 316 316 316 315 315 315
306 305 306 307 306 308 309 306 304 308 312 310 309 310 313 314 313 314 314 314 315 315 317 318 317 318 320 318 319 319 321 320 321 322 324 320 319 317 315 316 320 318 317 319 319
304 304 306 307 307 307 307 304 309 311 307 312 310 311 313 313 315 316 316 316 316 318 317 316 317 317 318 319 320 321 321 319 323 322 321 317 319 317 317 318 318 318 318 318 318
302 304 307 306 306 306 306 307 311 309 310 309 310 311 314 313 314 315 315 315 315 314 314 317 316 317 317 319 320 320 320 320 321 323 320 316 322 320 319 318 319 320 319 318 313
304 305 304 305 305 306 307 309 310 310 308 310 311 312 314 313 313 314 315 313 313 313 313 314 315 312 315 316 316 319 321 317 321 316 322 322 321 319 318 319 318 318 318 315 314
304 304 304 304 304 306 307 310 309 307 309 310 313 312 314 314 312 314 314 313 313 312 311 313 313 312 312 314 315 316 317 321 320 321 317 314 313 315 318 319 318 317 316 312 311
303 303 302 303 303 301 306 308 308 307 308 311 311 312 312 314 311 313 311 311 312 313 313 314 317 314 312 315 317 317 320 319 318 317 319 318 315 314 313 316 315 314 313 311 313
301 302 302 301 302 301 304 304 307 306 307 310 310 310 311 312 311 312 312 311 311 312 313 314 316 320 316 315 313 315 316 319 318 319 317 318 319 313 312 315 314 313 314 314 315
300 302 301 301 301 302 303 304 305 307 307 310 309 310 310 312 313 312 312 310 310 312 313 314 316 312 316 317 316 318 317 315 315 317 316 316 316 312 313 310 313 314 316 314 315
300 302 301 301 301 302 303 305 306 307 307 308 309 309 310 311 311 311 312 311 310 311 313 314 314 312 312 314 315 317 317 317 317 318 317 317 316 314 312 313 313 313 314 315 314
299 300 299 303 301 302 302 305 306 308 307 307 307 309 310 311 311 310 310 311 310 311 312 314 312 313 313 311 315 315 315 315 316 317 318 316 315 314 313 312 313 313 314 313 312
297 300 299 301 301 301 302 302 303 305 307 308 308 308 309 310 311 310 310 310 311 310 311 313 313 310 308 313 312 312 314 315 317 317 315 316 316 314 314 313 315 314 312 311 307
297 298 301 302 302 302 302 301 302 306 305 306 308 307 309 308 309 308 308 309 309 310 311 313 311 312 308 311 309 310 311 311 314 316 316 317 316 315 315 315 315 312 307 306 304
Wind_Speed
26 24 19 18 19 19 16 16 15 14 13 11 9 8 7 7 8 6 10 3 5 7 5 6 5 5 5 3 3 4 3 6 9 7 4 7 4 4 4 4 1 4 4 10 18
26 28 24 19 18 20 19 16 15 14 14 13 11 9 7 7 8 15 9 9 8 7 4 6 6 7 4 3 4 4 5 10 11 7 3 9 4 5 4 5 4 5 10 11 16
24 28 28 24 21 19 20 19 16 13 11 11 10 8 6 3 9 8 17 21 11 9 5 8 10 5 7 6 6 5 7 12 11 9 4 6 5 4 4 7 7 5 12 14 15
28 22 28 28 24 22 20 20 19 15 11 10 9 7 6 4 7 3 1 13 19 9 8 8 7 5 6 8 9 11 11 11 12 7 5 4 7 7 7 7 9 6 5 14 11
25 26 21 31 28 24 21 23 20 17 13 10 9 9 6 7 9 0 2 3 10 13 12 10 10 9 9 5 9 11 8 13 9 6 3 7 8 8 11 8 9 8 9 7 10
26 27 25 23 29 27 23 21 22 19 15 11 10 10 6 13 8 5 1 2 10 16 13 14 7 9 6 9 7 2 5 14 12 6 4 7 10 8 12 9 10 12 12 10 9
27 25 25 24 27 30 26 23 22 20 17 13 11 10 12 13 0 4 2 2 10 15 13 15 17 6 5 7 7 2 6 8 9 7 7 6 11 12 19 12 12 13 10 10 10
29 28 24 26 22 30 30 26 22 22 19 15 12 10 8 20 17 2 5 3 1 8 15 12 10 4 7 1 1 2 6 7 5 13 8 7 9 9 15 13 17 14 13 9 10
31 28 27 23 23 18 30 27 22 21 18 14 7 9 9 10 15 11 10 8 5 5 7 6 1 3 5 5 5 7 5 12 10 8 10 11 4 8 7 8 8 8 8 8 8
34 31 30 27 23 24 22 25 19 15 16 12 11 7 9 11 15 18 11 11 7 7 4 4 4 6 6 8 9 6 9 9 11 9 12 12 12 10 12 15 10 9 10 8 9
34 36 32 29 27 23 19 13 9 3 19 9 9 8 4 18 17 21 16 11 10 6 10 11 6 14 14 14 11 10 12 12 9 14 1 7 11 11 9 11 13 11 12 11 13
37 35 35 31 29 25 26 5 17 6 10 24 11 17 3 14 10 14 20 12 12 11 11 6 16 13 12 14 14 13 12 13 11 5 1 8 19 17 18 18 18 15 13 12 10
36 36 36 32 28 26 31 19 32 8 3 16 20 12 13 9 10 15 21 12 15 16 15 14 5 16 14 15 16 16 14 9 10 12 6 8 18 16 19 21 20 17 17 17 19
35 35 36 33 24 29 28 20 27 13 2 5 20 12 17 10 8 16 27 12 8 17 13 13 19 8 17 14 11 12 8 12 14 5 4 4 8 14 13 13 10 11 10 12 14
37 38 37 36 16 26 19 28 27 8 6 12 18 9 13 12 9 12 25 18 13 9 12 8 11 13 14 17 10 8 6 8 8 5 9 11 8 6 5 9 11 8 10 10 11
36 37 34 34 26 22 31 38 19 6 7 8 15 16 20 18 10 14 14 10 10 11 13 16 6 11 12 8 9 5 4 3 3 2 6 7 9 7 7 8 2 7 7 4 3
38 38 38 33 23 21 43 17 10 10 7 7 15 19 26 16 19 10 15 20 12 10 14 13 20 4 3 16 13 9 7 2 4 4 7 6 8 18 8 12 8 9 7 6 7
35 36 33 33 30 38 31 10 17 27 10 8 13 18 23 15 15 14 13 17 19 13 8 11 8 19 9 9 8 13 9 4 6 5 2 9 9 8 6 11 7 4 4 6 7
35 34 30 31 31 42 11 20 11 6 13 12 14 13 13 15 10 13 15 21 20 20 8 15 12 5 13 6 9 10 14 13 5 3 1 4 7 10 14 7 9 8 5 7 6
36 23 24 27 36 19 12 18 12 7 12 14 11 13 16 19 14 15 17 17 20 22 16 4 5 9 11 10 13 8 6 4 4 5 4 6 6 10 5 11 11 8 8 8 6
24 7 18 30 27 4 5 11 8 12 15 16 8 8 15 18 21 17 16 8 27 23 18 4 4 7 13 13 13 12 7 6 6 5 4 2 5 7 13 2 5 8 8 7 1
8 6 24 32 6 2 7 3 8 20 18 11 1 5 14 21 20 21 22 20 19 19 26 16 1 3 13 3 9 16 18 12 4 5 4 2 8 6 6 8 8 7 5 2 4
8 3 23 26 11 8 2 2 6 20 22 13 12 12 12 21 14 14 17 12 4 20 18 14 4 3 1 3 2 9 18 19 15 6 7 5 10 5 5 5 8 6 3 4 5
4 4 4 6 3 11 7 3 5 22 19 14 11 9 12 14 10 17 13 9 10 15 9 15 4 8 12 2 7 7 9 15 14 12 21 15 26 20 11 11 13 8 6 4 4
1 2 3 5 9 9 13 4 8 6 8 13 10 16 15 7 19 7 14 10 5 7 14 9 8 14 14 9 3 4 4 8 13 22 12 24 22 34 6 9 7 11 4 4 7
4 3 1 4 12 16 15 7 6 8 8 15 14 21 19 11 11 13 15 12 10 7 11 8 3 2 6 10 9 2 8 15 18 18 17 23 22 29 7 9 14 7 8 9 8
3 2 1 8 8 11 10 19 15 9 11 11 16 18 21 17 21 4 10 10 8 9 13 16 7 4 6 7 2 7 27 18 19 15 15 12 24 20 19 11 5 4 5 6 7
Wind_Direction
232 231 234 231 228 227 228 227 232 239 243 246 258 271 291 301 300 281 261 227 197 259 314 298 275 249 260 252 294 308 268 253 257 239 217 128 173 139 17 306 199 140 29 111 142
239 230 231 232 228 228 225 226 230 238 238 242 247 259 275 297 290 264 255 242 246 260 276 264 236 207 245 226 196 229 235 249 271 305 344 154 192 160 177 215 224 161 102 129 154
251 234 229 229 228 227 229 227 226 229 235 235 241 243 249 275 281 261 237 243 248 230 259 285 296 238 222 234 204 206 242 272 275 331 344 336 169 216 258 265 251 205 170 161 174
252 246 231 230 227 226 229 227 224 224 227 231 228 220 212 219 224 61 238 208 230 229 243 234 239 221 227 225 230 251 272 270 286 2 9 305 310 280 247 244 285 322 336 167 177
244 244 245 230 227 225 224 225 224 222 219 220 213 199 184 216 243 125 73 298 224 210 224 222 217 216 232 227 232 246 256 289 246 310 324 306 286 284 279 279 293 303 284 273 195
242 242 236 234 225 225 223 223 220 217 217 213 206 194 223 229 255 228 345 280 193 196 216 225 230 228 274 245 243 160 272 254 275 247 288 267 267 274 257 249 264 247 244 247 242
234 235 235 233 227 223 223 221 219 216 214 208 203 200 227 222 308 225 172 42 197 200 215 231 243 292 214 285 273 277 281 274 266 268 244 248 259 235 258 255 255 262 267 237 233
230 231 231 226 231 225 221 217 218 212 210 207 202 205 238 232 239 221 203 221 210 216 222 234 309 290 282 101 34 225 248 261 228 230 210 178 254 270 245 230 236 242 242 243 242
228 229 224 222 222 223 219 219 214 207 203 198 187 215 231 219 206 211 208 207 198 194 218 244 287 228 223 228 218 202 238 220 260 234 217 184 266 276 275 283 277 266 246 257 270
230 226 224 225 223 220 218 211 202 193 184 188 231 191 247 195 190 198 201 208 164 177 172 192 219 208 223 199 214 208 222 257 274 252 204 233 246 244 276 284 265 270 280 269 261
227 229 229 225 221 217 199 156 111 224 201 191 194 222 55 197 190 202 183 190 174 198 192 197 200 206 203 223 238 255 231 240 241 236 287 266 267 272 277 271 272 264 263 247 253
224 222 223 223 217 213 193 199 169 158 199 229 244 208 16 177 179 198 184 182 195 198 220 176 227 208 216 218 227 249 261 271 271 287 149 282 277 270 261 259 258 262 268 267 260
224 217 216 219 214 204 200 202 177 161 174 212 227 214 209 197 205 200 192 196 192 199 202 216 243 212 227 221 224 226 230 261 296 303 322 317 290 256 250 249 248 254 254 256 255
218 213 212 212 203 202 205 203 175 138 126 219 199 243 189 196 225 200 199 186 217 208 200 232 231 232 222 233 221 237 215 243 257 295 275 314 288 289 297 282 255 244 243 241 241
210 210 209 198 192 194 189 163 159 84 229 174 179 188 182 194 126 192 180 209 217 197 188 209 202 200 206 219 230 243 226 258 248 272 282 251 271 278 262 298 278 252 226 233 240
206 208 206 201 204 201 164 141 131 176 215 169 161 191 177 196 212 145 174 225 224 220 222 235 200 208 219 191 213 191 230 192 284 38 250 211 226 246 228 248 87 13 326 303 343
204 203 200 193 201 184 157 139 175 214 122 164 183 182 188 186 204 165 180 195 189 194 220 206 228 265 214 205 194 196 146 156 214 209 237 199 193 244 300 296 277 300 299 23 17
188 184 188 183 192 169 159 180 225 196 173 183 183 186 190 170 204 173 184 194 218 208 166 202 206 199 183 207 181 189 180 181 203 190 267 200 225 246 213 250 250 252 289 22 52
183 183 187 190 188 172 196 208 198 148 170 156 164 184 192 186 170 168 196 199 199 203 215 195 228 169 178 163 197 188 211 220 332 112 174 232 285 299 281 233 247 264 261 112 90
177 178 194 184 190 203 204 210 186 149 160 164 162 189 179 184 175 189 188 201 212 217 222 171 219 225 174 156 230 218 136 167 204 203 230 256 268 246 304 232 223 252 167 92 40
159 173 179 171 180 229 207 234 161 168 168 174 159 153 199 177 190 195 198 201 198 200 221 221 304 172 150 201 188 205 179 241 168 205 196 274 249 214 226 322 132 82 76 80 8
143 173 155 167 184 169 233 322 195 162 175 190 270 157 189 183 188 187 214 201 190 187 205 214 264 166 201 178 211 218 221 202 192 178 233 3 262 295 346 67 93 90 121 176 299
149 88 157 161 201 212 136 224 233 174 177 170 182 209 194 185 192 187 217 199 118 186 187 184 190 144 314 264 271 228 223 225 240 278 209 163 253 199 7 191 153 151 86 39 354
122 149 176 173 160 183 196 197 249 204 185 168 169 173 173 187 205 203 202 204 171 196 188 169 150 209 212 131 141 204 208 226 231 229 241 242 264 256 293 303 319 342 26 3 346
69 173 187 160 186 170 174 226 227 206 187 194 203 172 162 168 191 190 202 193 148 158 176 166 225 217 241 254 113 165 186 226 235 237 228 244 246 265 226 251 291 335 330 16 28
127 149 7 129 155 188 181 191 220 263 185 189 177 180 174 164 184 188 193 188 168 185 192 164 207 152 246 242 259 213 219 228 235 250 256 265 268 258 313 331 299 316 21 35 18
128 120 142 165 159 173 189 210 228 238 236 189 183 183 186 187 191 199 200 168 149 176 195 189 149 137 245 191 94 294 241 230 231 222 201 226 245 266 260 259 271 62 54 43 21